Location: Stone Trail Observatory
(44.2408°N, 105.6081°W)
Time: 09:31:45
(UTC-07:00)

Iridium 6 - Visible Passes

Search period start: 02 March 2015 00:00
Search period end: 12 March 2015 01:00
Orbit: 776 x 779 km, 86.4° (Epoch: 01 March)

Date Brightness Start Highest point End Pass type
(mag) Time Alt. Az. Time Alt. Az. Time Alt. Az.
02 Mar 8.1 20:56:03 10° NNE 20:56:03 10° NNE 20:56:03 10° NNE visible
03 Mar 8.4 22:03:10 10° NNW 22:03:23 11° NNW 22:03:23 11° NNW visible
04 Mar 8.0 21:29:28 10° N 21:30:15 15° N 21:30:15 15° N visible
05 Mar 7.7 20:56:00 10° N 20:57:07 16° N 20:57:07 16° N visible
06 Mar 7.5 20:22:48 10° NNE 20:24:01 16° NNE 20:24:01 16° NNE visible
06 Mar 8.2 22:03:33 10° NNW 22:04:31 15° NNW 22:04:31 15° NNW visible
07 Mar 7.6 19:50:04 10° NNE 19:50:56 13° NE 19:50:56 13° NE visible
07 Mar 7.6 21:29:39 10° N 21:31:25 21° NNW 21:31:25 21° NNW visible
08 Mar 7.1 21:56:03 10° N 21:58:22 27° N 21:58:22 27° N visible
09 Mar 6.8 21:22:41 10° N 21:25:20 28° NNE 21:25:20 28° NNE visible
09 Mar 8.0 23:04:04 10° NNW 23:05:50 17° NW 23:05:50 17° NW visible
10 Mar 6.9 20:49:37 10° NNE 20:52:20 22° NE 20:52:20 22° NE visible
10 Mar 7.3 22:29:57 10° NNW 22:32:50 29° NW 22:32:50 29° NW visible
11 Mar 7.2 20:17:11 10° NE 20:19:22 14° ENE 20:19:22 14° ENE visible
11 Mar 6.3 21:56:11 10° N 21:59:52 46° NNW 21:59:52 46° NNW visible
